Regional Weather Roundup
Issued by NWS

Home | Current Version | Previous Version | Text Only | Print | Product List | Glossary Off
Versions: 1 2 3 4 5 6 7 8 9 10 11 12 13 14 15 16 17 18 19 20 21 22 23 24 25 26 27 28 29 30 31 32 33 34 35 36 37 38 39 40 41 42 43 44 45 46 47 48 49 50

000
ASUS45 KCYS 011310
RWRWY

WYOMING REGIONAL WEATHER ROUNDUP
NATIONAL WEATHER SERVICE CHEYENNE WY
700 AM MDT WED OCT 01 2014

NOTE:  "FAIR" INDICATES FEW OR NO CLOUDS BELOW 12,000 FEET
WITH NO SIGNIFICANT WEATHER AND/OR OBSTRUCTIONS TO VISIBILITY.

WYZ001-011400-
YELLOWSTONE NATIONAL PARK

CITY           SKY/WX    TMP DP  RH WIND       PRES   REMARKS
LK YELLOWSTONE   N/A     30  27  88 CALM      30.02R
W YELLOWSTONE  NOT AVBL

$$
WYZ002>013-054>058-071-098>099-011400-
NORTHERN WYOMING

CITY           SKY/WX    TMP DP  RH WIND       PRES   REMARKS
JACKSON        MOCLDY    37  36  93 CALM      29.98R
CODY           CLOUDY    43  43 100 CALM      29.92R
GREYBULL       LGT RAIN  49  42  77 NW10      29.88R
WORLAND        LGT RAIN  46  43  89 W8        29.90R
SHERIDAN       CLOUDY    47  41  80 NW7       29.91R
BUFFALO        LGT RAIN  43  39  86 N22G29    29.91R
GILLETTE       CLOUDY    46  41  82 NW14      29.87R
HULETT         CLOUDY    50  45  81 W7        29.86
NEWCASTLE      FAIR      45  45 100 NW5       29.86

$$
WYZ014>020-022>026-101>103-011400-
CENTRAL WYOMING

CITY           SKY/WX    TMP DP  RH WIND       PRES   REMARKS
BIG PINEY      PTCLDY    26  22  84 NE5       29.99R WCI  20
PINEDALE       PTSUNNY   30  30 100 CALM      29.99R
DUBOIS         CLOUDY    37  28  70 NW6       29.93R WCI  33
LANDER         PTCLDY    40  35  83 S3        29.92R
RIVERTON       CLOUDY    42  36  79 N10       29.92R
CASPER         RAIN      43  40  89 NE18      29.90R FOG
DOUGLAS        CLOUDY    48  44  86 CALM      29.89S

$$
WYZ021-027>030-104>119-011400-
SOUTHERN WYOMING

CITY           SKY/WX    TMP DP  RH WIND       PRES   REMARKS
EVANSTON       PTCLDY    34  27  75 W12       30.01R WCI  25
KEMMERER       MOSUNNY   32  32 100 W5        30.00R WCI  27
FORT BRIDGER     N/A     36  35  98 NW8       30.02S WCI  29
ROCK SPRINGS   PTCLDY    35  32  88 W7        29.98R WCI  29
DIXON          CLOUDY    41  39  95 CALM      30.00R
RAWLINS        MOCLDY    37  34  89 W14       29.95S WCI  28
SARATOGA       FAIR      36  34  93 SW12      29.97S WCI  27
LARAMIE        PTCLDY    36  31  82 SW6       29.94S WCI  31
CHEYENNE       CLOUDY    47  36  65 NW7       29.91R
TORRINGTON     PTCLDY    43  41  93 N7        29.85S
PINE BLUFFS    CLOUDY    41  37  87 CALM      29.89S

$$



USA.gov is the U.S. government's official web portal to all federal, state and local government web resources and services.